Time,TemperatureF,DewpointF,PressureIn,WindDirection,WindDirectionDegrees,WindSpeedMPH,WindSpeedGustMPH,Humidity,HourlyPrecipIn,Conditions,Clouds,dailyrainin,SoftwareType,DateUTC
2013-01-21 00:00:00,67.3,64.0,30.05,NE,34,2.0,3.0,89,0.00,,SKC,0.00,VWS V14.01,2013-01-21 05:00:00,
2013-01-21 00:03:00,67.2,63.8,30.05,NE,53,5.0,7.0,89,0.00,,SKC,0.00,VWS V14.01,2013-01-21 05:03:00,
2013-01-21 00:04:00,67.2,63.8,30.05,NE,55,5.0,7.0,89,0.00,,SKC,0.00,VWS V14.01,2013-01-21 05:04:00,
2013-01-21 00:09:00,67.1,63.8,30.04,NE,49,2.0,9.0,89,0.00,,SKC,0.00,VWS V14.01,2013-01-21 05:09:00,
2013-01-21 00:14:00,67.0,63.7,30.04,NNE,33,1.0,9.0,89,0.00,,SKC,0.00,VWS V14.01,2013-01-21 05:14:00,
2013-01-21 00:19:00,66.9,63.6,30.04,NE,40,2.0,9.0,89,0.00,,SKC,0.00,VWS V14.01,2013-01-21 05:19:00,
2013-01-21 00:24:00,66.8,63.5,30.04,NE,50,2.0,9.0,89,0.00,,SKC,0.00,VWS V14.01,2013-01-21 05:24:00,
2013-01-21 00:29:00,66.7,63.7,30.04,NNE,28,2.0,9.0,90,0.00,,SKC,0.00,VWS V14.01,2013-01-21 05:29:00,
2013-01-21 00:34:00,66.6,63.6,30.04,NNE,29,1.0,7.0,90,0.00,,SKC,0.00,VWS V14.01,2013-01-21 05:34:00,
2013-01-21 00:39:00,66.6,63.6,30.05,NNW,344,1.0,7.0,90,0.00,,SKC,0.00,VWS V14.01,2013-01-21 05:39:00,
2013-01-21 00:44:00,66.5,63.5,30.05,NNW,330,4.0,7.0,90,0.00,,SKC,0.00,VWS V14.01,2013-01-21 05:44:00,
2013-01-21 00:49:00,66.5,63.5,30.05,NE,39,3.0,7.0,90,0.00,,SKC,0.00,VWS V14.01,2013-01-21 05:49:00,
2013-01-21 00:54:00,66.4,63.4,30.04,NE,49,4.0,7.0,90,0.00,,SKC,0.00,VWS V14.01,2013-01-21 05:54:00,
2013-01-21 00:59:00,66.3,63.3,30.04,NE,38,4.0,7.0,90,0.00,,SKC,0.00,VWS V14.01,2013-01-21 05:59:00,
2013-01-21 01:04:00,66.3,63.3,30.04,NNE,27,3.0,6.0,90,0.00,,SKC,0.00,VWS V14.01,2013-01-21 06:04:00,
2013-01-21 01:09:00,66.3,63.3,30.04,NE,45,4.0,7.0,90,0.00,,SKC,0.00,VWS V14.01,2013-01-21 06:09:00,
2013-01-21 01:14:00,66.2,63.2,30.04,NNE,26,3.0,9.0,90,0.00,,SKC,0.00,VWS V14.01,2013-01-21 06:14:00,
2013-01-21 01:19:00,66.2,63.2,30.04,NE,34,5.0,9.0,90,0.00,,SKC,0.00,VWS V14.01,2013-01-21 06:19:00,
2013-01-21 01:24:00,66.1,63.1,30.04,NNE,18,5.0,9.0,90,0.00,,SKC,0.00,VWS V14.01,2013-01-21 06:24:00,
2013-01-21 01:29:00,66.0,63.0,30.04,NNW,348,3.0,9.0,90,0.00,,SKC,0.00,VWS V14.01,2013-01-21 06:29:00,
2013-01-21 01:34:00,66.0,63.0,30.04,NE,51,5.0,6.0,90,0.00,,SKC,0.00,VWS V14.01,2013-01-21 06:34:00,
2013-01-21 01:39:00,65.9,63.2,30.04,NNW,333,5.0,7.0,91,0.00,,SKC,0.00,VWS V14.01,2013-01-21 06:39:00,
2013-01-21 01:44:00,65.8,63.1,30.04,ENE,59,4.0,7.0,91,0.00,,SKC,0.00,VWS V14.01,2013-01-21 06:44:00,
2013-01-21 01:49:00,65.7,63.0,30.04,NNW,339,1.0,7.0,91,0.00,,SKC,0.00,VWS V14.01,2013-01-21 06:49:00,
2013-01-21 01:54:00,65.6,62.9,30.04,NNE,24,1.0,7.0,91,0.00,,SKC,0.00,VWS V14.01,2013-01-21 06:54:00,
2013-01-21 01:59:00,65.5,62.8,30.04,NNE,30,1.0,7.0,91,0.00,,SKC,0.00,VWS V14.01,2013-01-21 06:59:00,
2013-01-21 02:04:00,65.5,62.8,30.04,NE,34,3.0,5.0,91,0.00,,SKC,0.00,VWS V14.01,2013-01-21 07:04:00,
2013-01-21 02:09:00,65.4,62.7,30.04,NNW,329,1.0,5.0,91,0.00,,SKC,0.00,VWS V14.01,2013-01-21 07:09:00,
2013-01-21 02:14:00,65.3,62.6,30.03,NNE,28,1.0,5.0,91,0.00,,SKC,0.00,VWS V14.01,2013-01-21 07:14:00,
2013-01-21 02:19:00,65.3,62.6,30.04,NNE,12,1.0,6.0,91,0.00,,SKC,0.00,VWS V14.01,2013-01-21 07:19:00,
2013-01-21 02:24:00,65.2,62.8,30.04,NE,55,3.0,6.0,92,0.00,,SKC,0.00,VWS V14.01,2013-01-21 07:24:00,
2013-01-21 02:29:00,65.1,62.7,30.03,ENE,61,4.0,6.0,92,0.00,,SKC,0.00,VWS V14.01,2013-01-21 07:29:00,
2013-01-21 02:34:00,65.0,62.6,30.03,NNE,26,2.0,7.0,92,0.00,,SKC,0.00,VWS V14.01,2013-01-21 07:34:00,
2013-01-21 02:39:00,64.9,62.5,30.02,NNE,31,1.0,7.0,92,0.00,,SKC,0.00,VWS V14.01,2013-01-21 07:39:00,
2013-01-21 02:44:00,64.8,62.4,30.03,NNW,344,1.0,7.0,92,0.00,,SKC,0.00,VWS V14.01,2013-01-21 07:44:00,
2013-01-21 02:49:00,64.7,62.3,30.03,NNE,18,2.0,7.0,92,0.00,,SKC,0.00,VWS V14.01,2013-01-21 07:49:00,
2013-01-21 02:54:00,64.5,62.1,30.02,NE,38,1.0,7.0,92,0.00,,SKC,0.00,VWS V14.01,2013-01-21 07:54:00,
2013-01-21 02:59:00,64.5,62.1,30.02,NE,42,8.0,8.0,92,0.00,,SKC,0.00,VWS V14.01,2013-01-21 07:59:00,
2013-01-21 03:04:00,64.5,62.1,30.02,NNE,20,2.0,8.0,92,0.00,,SKC,0.00,VWS V14.01,2013-01-21 08:04:00,
2013-01-21 03:09:00,64.5,62.1,30.02,NE,43,2.0,8.0,92,0.00,,SKC,0.00,VWS V14.01,2013-01-21 08:09:00,
2013-01-21 03:14:00,64.4,62.0,30.02,NE,53,4.0,10.0,92,0.00,,SKC,0.00,VWS V14.01,2013-01-21 08:14:00,
2013-01-21 03:19:00,64.4,62.0,30.02,NE,38,2.0,10.0,92,0.00,,SKC,0.00,VWS V14.01,2013-01-21 08:19:00,
2013-01-21 03:24:00,64.4,62.0,30.02,NE,46,2.0,10.0,92,0.00,,SKC,0.00,VWS V14.01,2013-01-21 08:24:00,
2013-01-21 03:29:00,64.3,61.9,30.02,NNE,32,1.0,10.0,92,0.00,,SKC,0.00,VWS V14.01,2013-01-21 08:29:00,
2013-01-21 03:34:00,64.3,61.9,30.02,NNW,345,1.0,4.0,92,0.00,,SKC,0.00,VWS V14.01,2013-01-21 08:34:00,
2013-01-21 03:39:00,64.3,62.2,30.02,NE,42,2.0,5.0,93,0.00,,SKC,0.00,VWS V14.01,2013-01-21 08:39:00,
2013-01-21 03:44:00,64.2,62.1,30.01,NE,40,1.0,5.0,93,0.00,,SKC,0.00,VWS V14.01,2013-01-21 08:44:00,
2013-01-21 03:49:00,64.2,62.1,30.01,NNE,33,1.0,5.0,93,0.00,,SKC,0.00,VWS V14.01,2013-01-21 08:49:00,
2013-01-21 03:54:00,64.2,62.1,30.01,NE,42,4.0,5.0,93,0.00,,SKC,0.00,VWS V14.01,2013-01-21 08:54:00,
2013-01-21 03:59:00,64.2,62.1,30.01,NNE,26,1.0,5.0,93,0.00,,SKC,0.00,VWS V14.01,2013-01-21 08:59:00,
2013-01-21 04:04:00,64.2,62.1,30.01,NE,55,0.0,2.0,93,0.00,,SKC,0.00,VWS V14.01,2013-01-21 09:04:00,
2013-01-21 04:09:00,64.2,62.1,30.00,NW,326,1.0,2.0,93,0.00,,SKC,0.00,VWS V14.01,2013-01-21 09:09:00,
2013-01-21 04:14:00,64.2,62.1,30.00,NE,49,0.0,5.0,93,0.00,,SKC,0.00,VWS V14.01,2013-01-21 09:14:00,
2013-01-21 04:19:00,64.2,62.1,30.00,NNE,27,1.0,5.0,93,0.00,,SKC,0.00,VWS V14.01,2013-01-21 09:19:00,
2013-01-21 04:24:00,64.2,62.1,30.00,NE,37,1.0,5.0,93,0.00,,SKC,0.00,VWS V14.01,2013-01-21 09:24:00,
2013-01-21 04:29:00,64.1,62.0,30.00,NNE,30,1.0,5.0,93,0.00,,SKC,0.00,VWS V14.01,2013-01-21 09:29:00,
2013-01-21 04:34:00,64.2,62.1,30.01,NE,46,0.0,1.0,93,0.00,,SKC,0.00,VWS V14.01,2013-01-21 09:34:00,
2013-01-21 04:39:00,64.1,62.0,30.01,NNW,344,0.0,1.0,93,0.00,,SKC,0.00,VWS V14.01,2013-01-21 09:39:00,
2013-01-21 04:44:00,64.1,62.0,30.01,NNE,12,2.0,4.0,93,0.00,,SKC,0.00,VWS V14.01,2013-01-21 09:44:00,
2013-01-21 04:49:00,64.1,62.0,30.01,NNE,15,1.0,4.0,93,0.00,,SKC,0.00,VWS V14.01,2013-01-21 09:49:00,
2013-01-21 04:54:00,64.1,62.0,30.01,NNE,25,3.0,4.0,93,0.00,,SKC,0.00,VWS V14.01,2013-01-21 09:54:00,
2013-01-21 04:59:00,64.1,62.0,30.00,NE,54,2.0,4.0,93,0.00,,SKC,0.00,VWS V14.01,2013-01-21 09:59:00,
2013-01-21 05:04:00,64.1,62.0,30.00,NE,37,1.0,4.0,93,0.00,,SKC,0.00,VWS V14.01,2013-01-21 10:04:00,
2013-01-21 05:09:00,64.0,61.9,30.00,NNE,31,2.0,4.0,93,0.00,,SKC,0.00,VWS V14.01,2013-01-21 10:09:00,
2013-01-21 05:14:00,64.0,61.9,30.00,North,10,2.0,4.0,93,0.00,,SKC,0.00,VWS V14.01,2013-01-21 10:14:00,
2013-01-21 05:19:00,64.0,61.9,30.00,NE,37,0.0,4.0,93,0.00,,SKC,0.00,VWS V14.01,2013-01-21 10:19:00,
2013-01-21 05:24:00,64.0,61.9,30.00,NE,47,2.0,4.0,93,0.00,,SKC,0.00,VWS V14.01,2013-01-21 10:24:00,
2013-01-21 05:29:00,64.1,62.0,30.00,NE,46,1.0,5.0,93,0.00,,SKC,0.00,VWS V14.01,2013-01-21 10:29:00,
2013-01-21 05:34:00,64.1,62.0,30.00,NE,44,4.0,4.0,93,0.00,,SKC,0.00,VWS V14.01,2013-01-21 10:34:00,
2013-01-21 05:39:00,64.1,62.0,30.00,ENE,57,4.0,4.0,93,0.00,,SKC,0.00,VWS V14.01,2013-01-21 10:39:00,
2013-01-21 05:44:00,64.1,62.0,30.00,NNE,24,1.0,4.0,93,0.00,,SKC,0.00,VWS V14.01,2013-01-21 10:44:00,
2013-01-21 05:49:00,64.1,62.0,30.00,NNE,31,2.0,5.0,93,0.00,,SKC,0.00,VWS V14.01,2013-01-21 10:49:00,
2013-01-21 05:54:00,64.1,62.0,30.01,NE,37,0.0,5.0,93,0.00,,SKC,0.00,VWS V14.01,2013-01-21 10:54:00,
2013-01-21 05:59:00,64.0,61.9,30.01,NNE,32,0.0,5.0,93,0.00,,SKC,0.00,VWS V14.01,2013-01-21 10:59:00,
2013-01-21 06:04:00,64.0,61.9,30.01,NNE,28,0.0,0.0,93,0.00,,SKC,0.00,VWS V14.01,2013-01-21 11:04:00,
2013-01-21 06:09:00,63.9,61.8,30.01,NNE,31,0.0,0.0,93,0.00,,SKC,0.00,VWS V14.01,2013-01-21 11:09:00,
2013-01-21 06:13:00,63.8,61.7,30.00,NE,45,0.0,0.0,93,0.00,,SKC,0.00,VWS V14.01,2013-01-21 11:13:00,
2013-01-21 06:19:00,63.7,61.6,30.01,NE,47,0.0,0.0,93,0.00,,SKC,0.00,VWS V14.01,2013-01-21 11:19:00,
2013-01-21 06:24:00,63.6,61.5,30.01,ENE,67,0.0,0.0,93,0.00,,SKC,0.00,VWS V14.01,2013-01-21 11:24:00,
2013-01-21 06:29:00,63.5,61.4,30.01,ENE,67,0.0,0.0,93,0.00,,SKC,0.00,VWS V14.01,2013-01-21 11:29:00,
2013-01-21 06:34:00,63.4,61.3,30.01,ENE,67,0.0,0.0,93,0.00,,SKC,0.00,VWS V14.01,2013-01-21 11:34:00,
2013-01-21 06:38:00,63.3,61.5,30.01,ENE,67,0.0,0.0,94,0.00,,SKC,0.00,VWS V14.01,2013-01-21 11:38:00,
2013-01-21 06:43:00,63.2,61.5,30.02,ENE,67,0.0,0.0,94,0.00,,SKC,0.00,VWS V14.01,2013-01-21 11:43:00,
2013-01-21 06:48:00,63.1,61.3,30.02,ENE,67,0.0,0.0,94,0.00,,SKC,0.00,VWS V14.01,2013-01-21 11:48:00,
2013-01-21 06:53:00,63.0,61.2,30.02,ENE,67,0.0,0.0,94,0.00,,SKC,0.00,VWS V14.01,2013-01-21 11:53:00,
2013-01-21 06:58:00,62.8,61.0,30.02,ENE,67,0.0,0.0,94,0.00,,SKC,0.00,VWS V14.01,2013-01-21 11:58:00,
2013-01-21 07:03:00,62.8,61.0,30.02,ENE,67,0.0,0.0,94,0.00,,SKC,0.00,VWS V14.01,2013-01-21 12:03:00,
2013-01-21 07:08:00,62.6,60.8,30.03,ENE,67,0.0,0.0,94,0.00,,SKC,0.00,VWS V14.01,2013-01-21 12:08:00,
2013-01-21 07:13:00,62.6,60.8,30.03,ENE,67,0.0,0.0,94,0.00,,SKC,0.00,VWS V14.01,2013-01-21 12:13:00,
2013-01-21 07:18:00,62.6,60.8,30.03,ENE,67,0.0,0.0,94,0.00,,SKC,0.00,VWS V14.01,2013-01-21 12:18:00,
2013-01-21 07:23:00,62.5,60.8,30.03,ENE,67,0.0,0.0,94,0.00,,SKC,0.00,VWS V14.01,2013-01-21 12:23:00,
2013-01-21 07:28:00,62.4,60.7,30.03,ENE,67,0.0,0.0,94,0.00,,SKC,0.00,VWS V14.01,2013-01-21 12:28:00,
2013-01-21 07:33:00,62.4,60.7,30.04,ENE,67,0.0,0.0,94,0.00,,SKC,0.00,VWS V14.01,2013-01-21 12:33:00,
2013-01-21 07:39:00,62.5,60.8,30.05,ENE,67,0.0,0.0,94,0.00,,SKC,0.00,VWS V14.01,2013-01-21 12:39:00,
2013-01-21 07:44:00,62.5,60.8,30.04,ENE,67,0.0,0.0,94,0.00,,SKC,0.00,VWS V14.01,2013-01-21 12:44:00,
2013-01-21 07:49:00,62.8,61.0,30.04,West,271,0.0,0.0,94,0.00,,SKC,0.00,VWS V14.01,2013-01-21 12:49:00,
2013-01-21 07:54:00,62.8,61.0,30.04,West,271,0.0,0.0,94,0.00,,SKC,0.00,VWS V14.01,2013-01-21 12:54:00,
2013-01-21 07:59:00,62.8,61.0,30.04,West,271,0.0,0.0,94,0.00,,SKC,0.00,VWS V14.01,2013-01-21 12:59:00,
2013-01-21 08:04:00,62.9,61.2,30.04,WNW,287,0.0,0.0,94,0.00,,SKC,0.00,VWS V14.01,2013-01-21 13:04:00,
2013-01-21 08:09:00,63.0,61.5,30.05,WNW,290,0.0,0.0,95,0.00,,SKC,0.00,VWS V14.01,2013-01-21 13:09:00,
2013-01-21 08:14:00,63.3,61.8,30.05,West,280,0.0,0.0,95,0.00,,SKC,0.00,VWS V14.01,2013-01-21 13:14:00,
2013-01-21 08:19:00,63.4,61.7,30.06,WNW,296,0.0,0.0,94,0.00,,SKC,0.00,VWS V14.01,2013-01-21 13:19:00,
2013-01-21 08:24:00,63.5,61.8,30.05,WNW,296,0.0,0.0,94,0.00,,SKC,0.00,VWS V14.01,2013-01-21 13:24:00,
2013-01-21 08:29:00,63.7,62.0,30.06,NW,323,0.0,0.0,94,0.00,,SKC,0.00,VWS V14.01,2013-01-21 13:29:00,
2013-01-21 08:34:00,63.9,62.1,30.06,West,272,0.0,0.0,94,0.00,,SKC,0.00,VWS V14.01,2013-01-21 13:34:00,
2013-01-21 08:39:00,64.0,62.2,30.06,NW,311,0.0,0.0,94,0.00,,SKC,0.00,VWS V14.01,2013-01-21 13:39:00,
2013-01-21 08:44:00,64.1,62.3,30.06,West,279,0.0,0.0,94,0.00,,SKC,0.00,VWS V14.01,2013-01-21 13:44:00,
2013-01-21 08:49:00,64.4,62.6,30.07,West,262,0.0,0.0,94,0.00,,SKC,0.00,VWS V14.01,2013-01-21 13:49:00,
2013-01-21 08:54:00,64.6,62.8,30.07,West,263,0.0,0.0,94,0.00,,SKC,0.00,VWS V14.01,2013-01-21 13:54:00,
2013-01-21 08:59:00,64.7,62.6,30.07,West,263,0.0,0.0,93,0.00,,SKC,0.00,VWS V14.01,2013-01-21 13:59:00,
2013-01-21 09:04:00,64.9,63.1,30.07,SW,236,0.0,0.0,94,0.00,,SKC,0.00,VWS V14.01,2013-01-21 14:04:00,
2013-01-21 09:09:00,64.9,62.8,30.07,WSW,247,0.0,0.0,93,0.00,,SKC,0.00,VWS V14.01,2013-01-21 14:09:00,
2013-01-21 09:14:00,65.2,63.1,30.07,WSW,251,0.0,0.0,93,0.00,,SKC,0.00,VWS V14.01,2013-01-21 14:14:00,
2013-01-21 09:19:00,65.3,63.2,30.07,West,276,0.0,0.0,93,0.00,,SKC,0.00,VWS V14.01,2013-01-21 14:19:00,
2013-01-21 09:24:00,65.8,63.7,30.07,West,276,0.0,0.0,93,0.00,,SKC,0.00,VWS V14.01,2013-01-21 14:24:00,
2013-01-21 09:29:00,66.1,63.7,30.08,SSW,206,0.0,0.0,92,0.00,,SKC,0.00,VWS V14.01,2013-01-21 14:29:00,
2013-01-21 09:34:00,66.4,64.0,30.08,SW,234,0.0,0.0,92,0.00,,SKC,0.00,VWS V14.01,2013-01-21 14:34:00,
2013-01-21 09:39:00,66.6,63.9,30.08,WSW,247,0.0,0.0,91,0.00,,SKC,0.00,VWS V14.01,2013-01-21 14:39:00,
2013-01-21 09:44:00,66.8,64.1,30.08,WSW,238,0.0,0.0,91,0.00,,SKC,0.00,VWS V14.01,2013-01-21 14:44:00,
2013-01-21 09:49:00,67.3,64.6,30.08,SSW,213,0.0,0.0,91,0.00,,SKC,0.00,VWS V14.01,2013-01-21 14:49:00,
2013-01-21 09:54:00,67.5,64.5,30.08,ESE,114,2.0,4.0,90,0.00,,SKC,0.00,VWS V14.01,2013-01-21 14:54:00,
2013-01-21 09:59:00,67.8,64.4,30.08,East,99,1.0,4.0,89,0.00,,SKC,0.00,VWS V14.01,2013-01-21 14:59:00,
2013-01-21 10:04:00,68.4,65.4,30.08,SSW,199,1.0,5.0,90,0.00,,SKC,0.00,VWS V14.01,2013-01-21 15:04:00,
2013-01-21 10:09:00,68.4,64.7,30.08,ESE,117,2.0,5.0,88,0.00,,SKC,0.00,VWS V14.01,2013-01-21 15:09:00,
2013-01-21 10:14:00,68.5,65.1,30.08,South,191,1.0,5.0,89,0.00,,SKC,0.00,VWS V14.01,2013-01-21 15:14:00,
2013-01-21 10:19:00,69.3,65.9,30.08,SW,232,0.0,5.0,89,0.00,,SKC,0.00,VWS V14.01,2013-01-21 15:19:00,
2013-01-21 10:24:00,69.7,65.7,30.08,SE,134,2.0,5.0,87,0.00,,SKC,0.00,VWS V14.01,2013-01-21 15:24:00,
2013-01-21 10:29:00,70.0,66.0,30.08,SSE,155,2.0,5.0,87,0.00,,SKC,0.00,VWS V14.01,2013-01-21 15:29:00,
2013-01-21 10:34:00,70.1,65.7,30.08,South,184,3.0,4.0,86,0.00,,SKC,0.00,VWS V14.01,2013-01-21 15:34:00,
2013-01-21 10:39:00,70.1,65.7,30.08,SSE,155,4.0,5.0,86,0.00,,SKC,0.00,VWS V14.01,2013-01-21 15:39:00,
2013-01-21 10:44:00,70.2,65.8,30.08,SSE,155,2.0,5.0,86,0.00,,SKC,0.00,VWS V14.01,2013-01-21 15:44:00,
2013-01-21 10:49:00,70.7,66.3,30.08,SSE,166,2.0,5.0,86,0.00,,SKC,0.00,VWS V14.01,2013-01-21 15:49:00,
2013-01-21 10:54:00,70.8,66.1,30.08,SW,221,1.0,7.0,85,0.00,,SKC,0.00,VWS V14.01,2013-01-21 15:54:00,
2013-01-21 10:59:00,71.0,66.3,30.07,SSW,207,2.0,7.0,85,0.00,,SKC,0.00,VWS V14.01,2013-01-21 15:59:00,
2013-01-21 11:04:00,71.1,66.4,30.07,SW,233,2.0,5.0,85,0.00,,SKC,0.00,VWS V14.01,2013-01-21 16:04:00,
2013-01-21 11:09:00,71.3,66.2,30.07,SSW,207,5.0,6.0,84,0.00,,SKC,0.00,VWS V14.01,2013-01-21 16:09:00,
2013-01-21 11:14:00,71.1,66.0,30.07,WSW,241,5.0,7.0,84,0.00,,SKC,0.00,VWS V14.01,2013-01-21 16:14:00,
2013-01-21 11:19:00,70.5,65.8,30.07,WSW,251,6.0,9.0,85,0.00,,SKC,0.00,VWS V14.01,2013-01-21 16:19:00,
2013-01-21 11:24:00,70.5,66.1,30.07,WSW,246,4.0,9.0,86,0.00,,SKC,0.00,VWS V14.01,2013-01-21 16:24:00,
2013-01-21 11:29:00,70.2,65.5,30.07,SW,221,2.0,9.0,85,0.00,,SKC,0.00,VWS V14.01,2013-01-21 16:29:00,
2013-01-21 11:34:00,69.8,65.4,30.08,SW,233,4.0,8.0,86,0.00,,SKC,0.00,VWS V14.01,2013-01-21 16:34:00,
2013-01-21 11:39:00,69.7,65.3,30.07,SW,229,2.0,8.0,86,0.00,,SKC,0.00,VWS V14.01,2013-01-21 16:39:00,
2013-01-21 11:44:00,69.7,65.7,30.07,SW,223,3.0,8.0,87,0.00,,SKC,0.00,VWS V14.01,2013-01-21 16:44:00,
2013-01-21 11:49:00,69.4,65.0,30.07,SW,217,4.0,8.0,86,0.00,,SKC,0.00,VWS V14.01,2013-01-21 16:49:00,
2013-01-21 11:54:00,69.3,65.3,30.07,West,261,2.0,8.0,87,0.00,,SKC,0.00,VWS V14.01,2013-01-21 16:54:00,
2013-01-21 11:58:00,69.4,65.0,30.06,WSW,240,6.0,8.0,86,0.00,,SKC,0.00,VWS V14.01,2013-01-21 16:58:00,
2013-01-21 12:03:00,69.4,65.4,30.06,SW,227,2.0,7.0,87,0.00,,SKC,0.00,VWS V14.01,2013-01-21 17:03:00,
2013-01-21 12:08:00,69.6,65.6,30.06,South,176,2.0,7.0,87,0.00,,SKC,0.00,VWS V14.01,2013-01-21 17:08:00,
2013-01-21 12:13:00,69.8,65.8,30.06,SW,225,2.0,7.0,87,0.00,,SKC,0.00,VWS V14.01,2013-01-21 17:13:00,
2013-01-21 12:18:00,70.0,65.6,30.05,SW,225,2.0,8.0,86,0.00,,SKC,0.00,VWS V14.01,2013-01-21 17:18:00,
2013-01-21 12:23:00,69.9,65.5,30.05,SW,225,0.0,8.0,86,0.00,,SKC,0.00,VWS V14.01,2013-01-21 17:23:00,
2013-01-21 12:28:00,69.7,65.3,30.05,West,268,2.0,8.0,86,0.00,,SKC,0.00,VWS V14.01,2013-01-21 17:28:00,
2013-01-21 12:33:00,70.0,65.6,30.05,West,275,5.0,6.0,86,0.00,,SKC,0.00,VWS V14.01,2013-01-21 17:33:00,
2013-01-21 12:38:00,70.0,65.3,30.04,WSW,238,5.0,8.0,85,0.00,,SKC,0.00,VWS V14.01,2013-01-21 17:38:00,
2013-01-21 12:43:00,69.8,65.4,30.04,SW,225,5.0,8.0,86,0.00,,SKC,0.00,VWS V14.01,2013-01-21 17:43:00,
2013-01-21 12:48:00,69.7,65.3,30.04,WSW,246,1.0,8.0,86,0.00,,SKC,0.00,VWS V14.01,2013-01-21 17:48:00,
2013-01-21 12:53:00,69.8,65.8,30.04,SSW,209,3.0,8.0,87,0.00,,SKC,0.00,VWS V14.01,2013-01-21 17:53:00,
2013-01-21 12:58:00,70.0,65.6,30.03,WNW,293,2.0,8.0,86,0.00,,SKC,0.00,VWS V14.01,2013-01-21 17:58:00,
2013-01-21 13:03:00,70.4,65.7,30.03,WSW,241,4.0,6.0,85,0.00,,SKC,0.00,VWS V14.01,2013-01-21 18:03:00,
2013-01-21 13:08:00,70.5,66.1,30.02,SSW,213,1.0,6.0,86,0.00,,SKC,0.00,VWS V14.01,2013-01-21 18:08:00,
2013-01-21 13:13:00,71.1,66.4,30.02,SW,226,2.0,6.0,85,0.00,,SKC,0.00,VWS V14.01,2013-01-21 18:13:00,
2013-01-21 13:18:00,71.5,66.1,30.02,SSW,207,1.0,6.0,83,0.00,,SKC,0.00,VWS V14.01,2013-01-21 18:18:00,
2013-01-21 13:23:00,71.7,66.6,30.02,SW,214,1.0,6.0,84,0.00,,SKC,0.00,VWS V14.01,2013-01-21 18:23:00,
2013-01-21 13:28:00,72.6,66.8,30.01,SW,219,2.0,6.0,82,0.00,,SKC,0.00,VWS V14.01,2013-01-21 18:28:00,
2013-01-21 13:33:00,73.1,66.9,30.01,South,183,2.0,6.0,81,0.00,,SKC,0.00,VWS V14.01,2013-01-21 18:33:00,
2013-01-21 13:38:00,73.3,66.8,30.01,West,269,3.0,6.0,80,0.00,,SKC,0.00,VWS V14.01,2013-01-21 18:38:00,
2013-01-21 13:43:00,72.9,66.4,30.01,SW,222,3.0,8.0,80,0.00,,SKC,0.00,VWS V14.01,2013-01-21 18:43:00,
2013-01-21 13:48:00,73.1,66.6,30.01,WSW,241,1.0,8.0,80,0.00,,SKC,0.00,VWS V14.01,2013-01-21 18:48:00,
2013-01-21 13:53:00,73.7,66.4,30.00,SSW,213,4.0,8.0,78,0.00,,SKC,0.00,VWS V14.01,2013-01-21 18:53:00,
2013-01-21 13:58:00,73.3,66.4,30.00,South,172,1.0,8.0,79,0.00,,SKC,0.00,VWS V14.01,2013-01-21 18:58:00,
2013-01-21 14:03:00,73.5,67.0,30.00,WSW,238,7.0,7.0,80,0.00,,SKC,0.00,VWS V14.01,2013-01-21 19:03:00,
2013-01-21 14:08:00,73.4,66.5,30.00,SW,232,6.0,7.0,79,0.00,,SKC,0.00,VWS V14.01,2013-01-21 19:08:00,
2013-01-21 14:13:00,73.3,66.4,30.00,West,265,4.0,8.0,79,0.00,,SKC,0.00,VWS V14.01,2013-01-21 19:13:00,
2013-01-21 14:18:00,73.4,66.9,30.00,WNW,283,2.0,9.0,80,0.00,,SKC,0.00,VWS V14.01,2013-01-21 19:18:00,
2013-01-21 14:23:00,73.9,66.6,30.00,WSW,253,5.0,10.0,78,0.00,,SKC,0.00,VWS V14.01,2013-01-21 19:23:00,
2013-01-21 14:28:00,74.0,66.3,30.00,WSW,245,7.0,10.0,77,0.00,,SKC,0.00,VWS V14.01,2013-01-21 19:28:00,
2013-01-21 14:33:00,74.1,66.1,30.00,SW,225,5.0,10.0,76,0.00,,SKC,0.00,VWS V14.01,2013-01-21 19:33:00,
2013-01-21 14:38:00,73.9,66.2,29.99,WSW,244,6.0,10.0,77,0.00,,SKC,0.00,VWS V14.01,2013-01-21 19:38:00,
2013-01-21 14:43:00,73.6,66.3,29.99,WNW,287,4.0,11.0,78,0.00,,SKC,0.00,VWS V14.01,2013-01-21 19:43:00,
2013-01-21 14:48:00,73.4,66.1,29.99,West,274,6.0,11.0,78,0.00,,SKC,0.00,VWS V14.01,2013-01-21 19:48:00,
2013-01-21 14:53:00,73.4,66.1,29.99,West,261,8.0,11.0,78,0.00,,SKC,0.00,VWS V14.01,2013-01-21 19:53:00,
2013-01-21 14:58:00,73.3,66.4,30.00,West,264,7.0,11.0,79,0.00,,SKC,0.00,VWS V14.01,2013-01-21 19:58:00,
2013-01-21 15:03:00,72.7,65.8,30.00,WSW,255,15.0,15.0,79,0.00,,SKC,0.00,VWS V14.01,2013-01-21 20:03:00,
2013-01-21 15:08:00,72.1,66.3,30.00,SSW,200,2.0,15.0,82,0.00,,SKC,0.00,VWS V14.01,2013-01-21 20:08:00,
2013-01-21 15:13:00,72.0,65.9,30.00,SW,233,5.0,15.0,81,0.00,,SKC,0.00,VWS V14.01,2013-01-21 20:13:00,
2013-01-21 15:18:00,71.6,65.8,29.99,SW,215,6.0,15.0,82,0.00,,SKC,0.00,VWS V14.01,2013-01-21 20:18:00,
2013-01-21 15:23:00,71.6,66.2,29.99,WSW,238,10.0,15.0,83,0.00,,SKC,0.00,VWS V14.01,2013-01-21 20:23:00,
2013-01-21 15:28:00,72.3,66.5,29.99,South,188,5.0,15.0,82,0.00,,SKC,0.00,VWS V14.01,2013-01-21 20:28:00,
2013-01-21 15:33:00,72.4,66.2,29.99,WSW,249,5.0,11.0,81,0.00,,SKC,0.00,VWS V14.01,2013-01-21 20:33:00,
2013-01-21 15:38:00,72.2,65.7,29.99,WSW,238,8.0,14.0,80,0.00,,SKC,0.00,VWS V14.01,2013-01-21 20:38:00,
2013-01-21 15:43:00,71.7,65.6,29.99,West,268,8.0,14.0,81,0.00,,SKC,0.00,VWS V14.01,2013-01-21 20:43:00,
2013-01-21 15:48:00,71.4,65.6,29.99,WNW,284,9.0,14.0,82,0.00,,SKC,0.00,VWS V14.01,2013-01-21 20:48:00,
2013-01-21 15:53:00,71.7,65.9,29.99,WSW,251,8.0,14.0,82,0.00,,SKC,0.00,VWS V14.01,2013-01-21 20:53:00,
2013-01-21 15:58:00,72.1,65.9,29.99,WSW,241,8.0,14.0,81,0.00,,SKC,0.00,VWS V14.01,2013-01-21 20:58:00,
2013-01-21 16:03:00,72.2,66.1,29.99,WSW,246,7.0,7.0,81,0.00,,SKC,0.00,VWS V14.01,2013-01-21 21:03:00,
2013-01-21 16:08:00,72.1,65.9,29.99,SW,234,7.0,11.0,81,0.00,,SKC,0.00,VWS V14.01,2013-01-21 21:08:00,
2013-01-21 16:13:00,72.0,65.9,29.99,West,265,8.0,13.0,81,0.00,,SKC,0.00,VWS V14.01,2013-01-21 21:13:00,
2013-01-21 16:18:00,72.1,66.3,29.99,WSW,249,11.0,13.0,82,0.00,,SKC,0.00,VWS V14.01,2013-01-21 21:18:00,
2013-01-21 16:23:00,71.8,65.3,29.99,WSW,253,8.0,13.0,80,0.00,,SKC,0.00,VWS V14.01,2013-01-21 21:23:00,
2013-01-21 16:28:00,71.2,65.4,30.00,WNW,282,6.0,14.0,82,0.00,,SKC,0.00,VWS V14.01,2013-01-21 21:28:00,
2013-01-21 16:33:00,70.9,65.1,29.99,WNW,300,10.0,10.0,82,0.00,,SKC,0.00,VWS V14.01,2013-01-21 21:33:00,
2013-01-21 16:38:00,70.6,65.2,30.00,West,275,6.0,11.0,83,0.00,,SKC,0.00,VWS V14.01,2013-01-21 21:38:00,
2013-01-21 16:43:00,70.3,65.2,30.00,West,265,10.0,11.0,84,0.00,,SKC,0.00,VWS V14.01,2013-01-21 21:43:00,
2013-01-21 16:48:00,70.3,65.2,30.00,West,277,6.0,11.0,84,0.00,,SKC,0.00,VWS V14.01,2013-01-21 21:48:00,
2013-01-21 16:53:00,70.5,65.4,30.00,West,268,5.0,11.0,84,0.00,,SKC,0.00,VWS V14.01,2013-01-21 21:53:00,
2013-01-21 16:58:00,70.5,65.4,30.00,West,270,5.0,11.0,84,0.00,,SKC,0.00,VWS V14.01,2013-01-21 21:58:00,
2013-01-21 17:03:00,70.4,65.3,30.00,West,272,4.0,7.0,84,0.00,,SKC,0.00,VWS V14.01,2013-01-21 22:03:00,
2013-01-21 17:08:00,70.3,65.2,30.00,West,263,6.0,7.0,84,0.00,,SKC,0.00,VWS V14.01,2013-01-21 22:08:00,
2013-01-21 17:13:00,70.0,64.9,30.00,West,277,8.0,10.0,84,0.00,,SKC,0.00,VWS V14.01,2013-01-21 22:13:00,
2013-01-21 17:18:00,69.8,64.8,30.00,WSW,257,7.0,10.0,84,0.00,,SKC,0.00,VWS V14.01,2013-01-21 22:18:00,
2013-01-21 17:23:00,69.7,64.7,30.00,West,261,6.0,10.0,84,0.00,,SKC,0.00,VWS V14.01,2013-01-21 22:23:00,
2013-01-21 17:28:00,69.6,64.6,30.01,WNW,284,4.0,10.0,84,0.00,,SKC,0.00,VWS V14.01,2013-01-21 22:28:00,
2013-01-21 17:33:00,69.4,64.4,30.01,West,277,6.0,10.0,84,0.00,,SKC,0.00,VWS V14.01,2013-01-21 22:33:00,
2013-01-21 17:38:00,69.1,64.1,30.01,WNW,299,4.0,12.0,84,0.00,,SKC,0.00,VWS V14.01,2013-01-21 22:38:00,
2013-01-21 17:43:00,69.0,64.3,30.02,West,276,5.0,12.0,85,0.00,,SKC,0.00,VWS V14.01,2013-01-21 22:43:00,
2013-01-21 17:48:00,68.8,64.1,30.01,SW,234,9.0,12.0,85,0.00,,SKC,0.00,VWS V14.01,2013-01-21 22:48:00,
2013-01-21 17:53:00,68.5,63.8,30.02,West,263,5.0,12.0,85,0.00,,SKC,0.00,VWS V14.01,2013-01-21 22:53:00,
2013-01-21 17:58:00,68.3,63.6,30.02,SW,234,7.0,12.0,85,0.00,,SKC,0.00,VWS V14.01,2013-01-21 22:58:00,
2013-01-21 18:03:00,68.1,63.4,30.02,SW,233,4.0,9.0,85,0.00,,SKC,0.00,VWS V14.01,2013-01-21 23:03:00,
2013-01-21 18:08:00,67.9,63.2,30.02,West,273,1.0,9.0,85,0.00,,SKC,0.00,VWS V14.01,2013-01-21 23:08:00,
2013-01-21 18:13:00,67.8,63.5,30.02,West,279,5.0,11.0,86,0.00,,SKC,0.00,VWS V14.01,2013-01-21 23:13:00,
2013-01-21 18:18:00,67.7,63.4,30.02,WNW,296,10.0,11.0,86,0.00,,SKC,0.00,VWS V14.01,2013-01-21 23:18:00,
2013-01-21 18:23:00,67.6,63.3,30.03,WSW,243,6.0,11.0,86,0.00,,SKC,0.00,VWS V14.01,2013-01-21 23:23:00,
2013-01-21 18:28:00,67.5,63.5,30.03,WSW,258,4.0,11.0,87,0.00,,SKC,0.00,VWS V14.01,2013-01-21 23:28:00,
2013-01-21 18:33:00,67.3,63.3,30.02,West,271,1.0,7.0,87,0.00,,SKC,0.00,VWS V14.01,2013-01-21 23:33:00,
2013-01-21 18:38:00,67.3,63.3,30.02,West,273,1.0,8.0,87,0.00,,SKC,0.00,VWS V14.01,2013-01-21 23:38:00,
2013-01-21 18:43:00,67.2,63.2,30.02,West,272,6.0,8.0,87,0.00,,SKC,0.00,VWS V14.01,2013-01-21 23:43:00,
2013-01-21 18:48:00,67.1,63.4,30.03,NW,309,1.0,9.0,88,0.00,,SKC,0.00,VWS V14.01,2013-01-21 23:48:00,
2013-01-21 18:53:00,67.0,63.3,30.03,WNW,290,2.0,9.0,88,0.00,,SKC,0.00,VWS V14.01,2013-01-21 23:53:00,
2013-01-21 18:58:00,66.9,63.2,30.03,West,280,2.0,9.0,88,0.00,,SKC,0.00,VWS V14.01,2013-01-21 23:58:00,
2013-01-21 19:03:00,66.8,63.1,30.03,NW,304,3.0,9.0,88,0.00,,SKC,0.00,VWS V14.01,2013-01-22 00:03:00,
2013-01-21 19:08:00,66.7,63.0,30.03,WNW,291,5.0,9.0,88,0.00,,SKC,0.00,VWS V14.01,2013-01-22 00:08:00,
2013-01-21 19:13:00,66.7,63.0,30.03,West,279,6.0,9.0,88,0.00,,SKC,0.00,VWS V14.01,2013-01-22 00:13:00,
2013-01-21 19:18:00,66.6,62.9,30.03,WNW,288,6.0,9.0,88,0.00,,SKC,0.00,VWS V14.01,2013-01-22 00:18:00,
2013-01-21 19:23:00,66.5,62.8,30.03,WSW,251,1.0,9.0,88,0.00,,SKC,0.00,VWS V14.01,2013-01-22 00:23:00,
2013-01-21 19:28:00,66.4,62.7,30.03,WNW,292,5.0,9.0,88,0.00,,SKC,0.00,VWS V14.01,2013-01-22 00:28:00,
2013-01-21 19:33:00,66.4,62.7,30.04,West,273,2.0,7.0,88,0.00,,SKC,0.00,VWS V14.01,2013-01-22 00:33:00,
2013-01-21 19:38:00,66.3,62.6,30.04,NW,311,8.0,14.0,88,0.00,,SKC,0.00,VWS V14.01,2013-01-22 00:38:00,
2013-01-21 19:43:00,66.2,62.5,30.04,WNW,285,5.0,14.0,88,0.00,,SKC,0.00,VWS V14.01,2013-01-22 00:43:00,
2013-01-21 19:48:00,66.1,62.5,30.04,WNW,284,5.0,14.0,88,0.00,,SKC,0.00,VWS V14.01,2013-01-22 00:48:00,
2013-01-21 19:53:00,66.0,62.3,30.04,WNW,300,4.0,14.0,88,0.00,,SKC,0.00,VWS V14.01,2013-01-22 00:53:00,
2013-01-21 19:58:00,65.9,62.6,30.04,WNW,288,5.0,14.0,89,0.00,,SKC,0.00,VWS V14.01,2013-01-22 00:58:00,
2013-01-21 20:03:00,65.8,62.5,30.04,SW,236,7.0,8.0,89,0.00,,SKC,0.00,VWS V14.01,2013-01-22 01:03:00,
2013-01-21 20:08:00,65.7,62.4,30.03,WNW,283,7.0,8.0,89,0.00,,SKC,0.00,VWS V14.01,2013-01-22 01:08:00,
2013-01-21 20:13:00,65.6,62.3,30.03,WNW,288,2.0,8.0,89,0.00,,SKC,0.00,VWS V14.01,2013-01-22 01:13:00,
2013-01-21 20:18:00,65.5,62.2,30.03,WNW,288,4.0,8.0,89,0.00,,SKC,0.00,VWS V14.01,2013-01-22 01:18:00,
2013-01-21 20:23:00,65.4,62.4,30.03,West,280,7.0,8.0,90,0.00,,SKC,0.00,VWS V14.01,2013-01-22 01:23:00,
2013-01-21 20:28:00,65.3,62.3,30.03,West,265,2.0,8.0,90,0.00,,SKC,0.00,VWS V14.01,2013-01-22 01:28:00,
2013-01-21 20:33:00,65.3,62.3,30.03,WNW,290,1.0,7.0,90,0.00,,SKC,0.00,VWS V14.01,2013-01-22 01:33:00,
2013-01-21 20:38:00,65.2,62.2,30.03,West,279,2.0,7.0,90,0.00,,SKC,0.00,VWS V14.01,2013-01-22 01:38:00,
2013-01-21 20:43:00,65.1,62.1,30.03,West,280,1.0,7.0,90,0.00,,SKC,0.00,VWS V14.01,2013-01-22 01:43:00,
2013-01-21 20:48:00,65.0,62.0,30.03,WNW,290,2.0,7.0,90,0.00,,SKC,0.00,VWS V14.01,2013-01-22 01:48:00,
2013-01-21 20:53:00,64.9,62.2,30.04,WNW,291,5.0,7.0,91,0.00,,SKC,0.00,VWS V14.01,2013-01-22 01:53:00,
2013-01-21 20:58:00,64.9,62.2,30.04,WNW,288,4.0,7.0,91,0.00,,SKC,0.00,VWS V14.01,2013-01-22 01:58:00,
2013-01-21 21:03:00,64.8,62.1,30.04,WNW,287,2.0,5.0,91,0.00,,SKC,0.00,VWS V14.01,2013-01-22 02:03:00,
2013-01-21 21:08:00,64.7,62.0,30.04,WNW,286,2.0,6.0,91,0.00,,SKC,0.00,VWS V14.01,2013-01-22 02:08:00,
2013-01-21 21:13:00,64.7,62.0,30.04,WNW,300,4.0,6.0,91,0.00,,SKC,0.00,VWS V14.01,2013-01-22 02:13:00,
2013-01-21 21:18:00,64.6,61.9,30.04,WNW,287,3.0,6.0,91,0.00,,SKC,0.00,VWS V14.01,2013-01-22 02:18:00,
2013-01-21 21:23:00,64.5,61.8,30.04,West,279,2.0,6.0,91,0.00,,SKC,0.00,VWS V14.01,2013-01-22 02:23:00,
2013-01-21 21:28:00,64.4,61.7,30.04,WSW,249,2.0,6.0,91,0.00,,SKC,0.00,VWS V14.01,2013-01-22 02:28:00,
2013-01-21 21:33:00,64.3,61.6,30.05,West,279,2.0,6.0,91,0.00,,SKC,0.00,VWS V14.01,2013-01-22 02:33:00,
2013-01-21 21:38:00,64.2,61.5,30.05,WNW,283,2.0,6.0,91,0.00,,SKC,0.00,VWS V14.01,2013-01-22 02:38:00,
2013-01-21 21:43:00,64.0,61.3,30.05,WSW,255,0.0,6.0,91,0.00,,SKC,0.00,VWS V14.01,2013-01-22 02:43:00,
2013-01-21 21:48:00,63.9,61.5,30.04,West,259,1.0,6.0,92,0.00,,SKC,0.00,VWS V14.01,2013-01-22 02:48:00,
2013-01-21 21:53:00,63.8,61.4,30.05,WNW,287,1.0,6.0,92,0.00,,SKC,0.00,VWS V14.01,2013-01-22 02:53:00,
2013-01-21 21:58:00,63.7,61.3,30.05,WNW,287,0.0,6.0,92,0.00,,SKC,0.00,VWS V14.01,2013-01-22 02:58:00,
2013-01-21 22:03:00,63.5,61.1,30.05,WNW,290,0.0,2.0,92,0.00,,SKC,0.00,VWS V14.01,2013-01-22 03:03:00,
2013-01-21 22:08:00,63.4,61.0,30.05,West,271,2.0,5.0,92,0.00,,SKC,0.00,VWS V14.01,2013-01-22 03:08:00,
2013-01-21 22:13:00,63.4,61.0,30.05,West,269,4.0,5.0,92,0.00,,SKC,0.00,VWS V14.01,2013-01-22 03:13:00,
2013-01-21 22:18:00,63.4,61.0,30.05,NW,304,2.0,5.0,92,0.00,,SKC,0.00,VWS V14.01,2013-01-22 03:18:00,
2013-01-21 22:23:00,63.3,60.9,30.05,West,276,0.0,5.0,92,0.00,,SKC,0.00,VWS V14.01,2013-01-22 03:23:00,
2013-01-21 22:28:00,63.2,60.8,30.06,West,279,1.0,5.0,92,0.00,,SKC,0.00,VWS V14.01,2013-01-22 03:28:00,
2013-01-21 22:33:00,63.1,60.7,30.06,West,275,0.0,1.0,92,0.00,,SKC,0.00,VWS V14.01,2013-01-22 03:33:00,
2013-01-21 22:38:00,63.0,60.6,30.06,West,280,1.0,1.0,92,0.00,,SKC,0.00,VWS V14.01,2013-01-22 03:38:00,
2013-01-21 22:43:00,62.9,60.8,30.05,West,263,0.0,1.0,93,0.00,,SKC,0.00,VWS V14.01,2013-01-22 03:43:00,
2013-01-21 22:48:00,62.8,60.8,30.06,NW,306,0.0,2.0,93,0.00,,SKC,0.00,VWS V14.01,2013-01-22 03:48:00,
2013-01-21 22:53:00,62.8,60.8,30.06,WNW,290,1.0,5.0,93,0.00,,SKC,0.00,VWS V14.01,2013-01-22 03:53:00,
2013-01-21 22:58:00,62.8,60.8,30.06,West,280,2.0,5.0,93,0.00,,SKC,0.00,VWS V14.01,2013-01-22 03:58:00,
2013-01-21 23:03:00,62.7,60.7,30.06,West,266,0.0,2.0,93,0.00,,SKC,0.00,VWS V14.01,2013-01-22 04:03:00,
2013-01-21 23:08:00,62.7,60.7,30.06,NW,311,1.0,3.0,93,0.00,,SKC,0.00,VWS V14.01,2013-01-22 04:08:00,
2013-01-21 23:13:00,62.7,60.7,30.06,WNW,287,1.0,5.0,93,0.00,,SKC,0.00,VWS V14.01,2013-01-22 04:13:00,
2013-01-21 23:18:00,62.7,60.7,30.06,WNW,283,1.0,7.0,93,0.00,,SKC,0.00,VWS V14.01,2013-01-22 04:18:00,
2013-01-21 23:23:00,62.7,60.7,30.06,WNW,292,0.0,7.0,93,0.00,,SKC,0.00,VWS V14.01,2013-01-22 04:23:00,
2013-01-21 23:28:00,62.7,60.7,30.06,WNW,289,4.0,8.0,93,0.00,,SKC,0.00,VWS V14.01,2013-01-22 04:28:00,
2013-01-21 23:33:00,62.8,60.8,30.06,WNW,288,3.0,7.0,93,0.00,,SKC,0.00,VWS V14.01,2013-01-22 04:33:00,
2013-01-21 23:38:00,62.8,60.5,30.06,WNW,295,5.0,8.0,92,0.00,,SKC,0.00,VWS V14.01,2013-01-22 04:38:00,
2013-01-21 23:43:00,62.8,60.5,30.05,NW,312,2.0,8.0,92,0.00,,SKC,0.00,VWS V14.01,2013-01-22 04:43:00,
2013-01-21 23:48:00,62.8,60.5,30.06,WNW,290,2.0,8.0,92,0.00,,SKC,0.00,VWS V14.01,2013-01-22 04:48:00,
2013-01-21 23:53:00,62.7,60.3,30.06,NW,307,6.0,8.0,92,0.00,,SKC,0.00,VWS V14.01,2013-01-22 04:53:00,
2013-01-21 23:58:00,62.7,60.3,30.06,WNW,295,2.0,8.0,92,0.00,,SKC,0.00,VWS V14.01,2013-01-22 04:58:00,